Wetbulb
59.74 59.40 59.09 58.67 57.85 57.89 58.24 58.45 58.43 58.54 58.62 57.89 57.70 58.48 58.54 58.54 58.88 58.75 58.90 58.87 58.55 58.51 58.84 59.09 60.31 59.21 54.76 48.56 48.66 56.24 59.57 58.96 56.52 56.50 53.95 51.34 47.06 46.21 42.39 43.73 44.66 42.73 44.13 45.58 45.86 45.63 44.65
59.38 59.61 59.36 58.85 57.75 57.26 57.78 58.16 58.24 58.26 58.20 58.03 56.86 57.33 58.17 58.96 59.13 58.52 58.09 57.81 57.19 56.56 57.82 57.55 57.54 55.68 47.56 42.35 52.63 53.73 52.55 52.87 53.33 54.39 51.75 50.88 48.66 48.79 44.47 43.75 43.54 44.30 43.67 43.48 44.88 44.59 44.79
58.98 59.03 59.18 58.80 58.27 57.09 57.18 57.77 57.93 58.00 57.95 57.78 57.53 57.69 57.37 57.91 59.19 58.65 57.57 56.92 56.67 57.04 58.04 56.59 55.51 52.08 46.84 45.10 52.36 50.41 51.60 49.95 51.29 54.18 50.65 51.39 49.21 45.71 43.97 42.41 45.89 43.34 40.09 41.12 42.42 43.87 43.74
58.18 58.57 58.94 58.90 58.37 57.32 57.21 57.26 57.67 57.71 57.54 57.36 57.25 57.32 57.53 56.67 57.23 58.71 57.27 56.61 55.12 56.42 56.93 56.01 56.13 50.54 42.38 53.35 51.00 50.85 50.44 49.47 51.30 54.29 51.32 50.11 50.22 46.40 43.75 43.67 43.97 40.73 39.39 35.69 41.00 43.35 43.74
57.88 57.93 58.25 58.36 58.60 57.42 56.98 57.11 57.28 57.54 57.24 56.89 56.65 56.48 56.36 56.67 56.19 55.97 57.88 56.93 56.03 55.09 55.27 55.84 51.73 46.82 42.36 54.36 48.71 50.57 50.08 48.83 49.63 49.74 49.53 50.47 49.10 43.62 43.05 38.18 35.21 36.33 31.65 34.59 37.82 43.00 42.95
57.54 57.46 57.40 57.53 58.05 58.16 57.32 57.36 57.17 57.33 57.16 56.75 56.39 55.93 56.39 56.08 56.05 55.76 55.64 56.80 57.82 56.19 54.63 54.04 51.93 42.36 46.16 45.26 49.61 50.72 50.42 50.70 47.97 46.94 46.43 45.50 43.10 37.67 37.43 34.64 28.15 31.56 31.52 33.68 35.75 39.94 40.13
56.98 57.11 57.04 57.08 56.99 57.47 57.52 56.73 57.20 57.20 57.03 56.60 56.22 56.13 56.07 56.21 55.53 55.44 53.58 48.97 45.27 43.37 46.81 43.20 44.55 43.49 47.62 50.66 51.90 49.64 50.54 48.83 47.64 44.07 37.35 41.11 35.86 30.79 34.48 36.84 37.70 36.83 34.08 34.61 36.47 40.27 37.40
56.81 56.94 56.98 57.10 57.30 56.83 57.11 56.63 56.22 56.64 56.79 56.45 55.95 56.09 55.88 55.99 55.41 54.64 51.16 47.00 44.86 46.54 39.80 46.92 47.26 47.90 50.18 50.96 46.25 47.98 50.78 43.88 42.68 37.40 39.92 37.14 33.80 38.57 41.35 40.74 38.79 37.52 34.17 32.63 36.52 39.65 35.19
56.19 56.25 56.27 56.46 56.85 56.71 56.52 56.38 56.08 55.89 56.25 56.20 55.45 55.71 55.60 55.19 54.99 51.21 50.10 47.62 50.55 48.78 39.69 43.49 46.83 46.21 46.77 49.11 44.33 44.50 47.39 44.43 40.87 38.62 37.46 35.32 37.86 42.22 40.35 37.39 37.66 34.60 33.81 33.26 34.76 37.73 36.59
55.93 55.92 55.86 56.04 56.38 56.49 56.61 56.66 55.80 55.53 55.69 55.80 55.12 54.51 54.96 54.00 50.44 48.46 46.85 51.17 50.89 48.41 32.93 38.07 42.03 45.17 48.16 47.80 41.32 48.06 47.82 44.64 41.82 37.97 38.25 36.72 40.47 39.63 37.80 36.88 36.59 32.44 37.67 37.57 36.92 32.24 27.43
56.02 55.97 55.97 55.92 55.91 56.03 56.38 56.51 55.95 55.50 55.49 55.28 55.30 54.42 54.10 53.88 48.10 45.73 48.97 50.46 48.82 45.94 16.71 38.86 42.26 49.23 47.49 43.48 43.27 43.39 47.75 45.19 38.57 38.50 38.03 33.58 37.31 37.75 36.94 36.45 37.92 35.52 38.91 36.71 35.73 31.90 27.32
56.27 56.34 56.28 56.23 56.27 56.16 56.20 56.24 55.96 55.30 55.30 54.89 54.86 53.80 53.66 51.04 48.55 47.71 49.99 48.54 46.36 30.51 17.82 34.56 42.86 41.27 41.62 42.33 42.77 44.36 43.89 45.96 44.83 40.00 38.92 36.99 41.22 39.07 37.40 39.37 38.97 39.68 36.15 35.88 34.84 29.77 20.22
55.92 55.79 55.78 56.14 56.60 56.46 56.06 55.97 56.22 55.61 54.97 54.31 53.95 53.12 51.01 50.92 46.89 49.87 48.99 45.24 29.39 22.31 36.49 35.01 36.99 40.64 39.08 38.72 39.95 41.28 39.01 36.43 34.93 27.56 26.26 35.16 36.27 38.72 40.76 36.22 38.24 37.09 29.88 22.62 21.62 20.33 20.43
55.57 55.47 55.52 55.75 56.31 56.38 56.27 55.96 55.99 55.97 55.05 54.00 52.82 52.24 50.89 49.34 49.45 49.73 46.15 36.10 23.72 31.78 32.20 39.18 38.56 39.26 35.62 37.76 37.02 38.22 35.64 32.78 36.58 35.54 29.17 24.55 22.47 35.67 39.86 36.19 33.38 32.68 30.55 23.06 20.86 22.13 22.04
55.12 55.37 55.80 56.01 55.85 55.94 56.12 55.99 55.83 55.49 54.64 53.82 51.31 47.64 46.30 46.16 49.83 48.49 42.13 27.75 29.70 33.27 38.19 37.52 37.47 33.52 33.97 37.65 36.46 35.63 33.71 32.92 33.82 34.64 30.38 29.85 28.13 37.72 38.84 38.91 36.83 31.91 25.65 31.60 25.73 25.09 20.87
54.86 55.48 55.97 55.88 55.64 55.36 55.60 55.84 55.57 55.38 54.33 53.19 46.89 45.06 45.57 47.13 47.57 44.49 35.21 32.62 33.85 40.44 40.48 39.72 32.95 34.85 30.54 33.13 33.19 32.74 32.33 35.31 35.02 35.56 33.93 30.72 27.09 34.76 37.64 38.64 36.72 33.02 34.01 25.38 24.50 21.54 20.58
54.76 55.41 55.89 55.76 55.85 55.49 55.38 55.51 55.38 55.38 54.52 51.08 46.33 42.94 47.78 47.71 46.29 38.98 29.93 31.13 37.24 40.74 40.86 37.67 35.77 34.28 34.39 33.19 32.61 31.54 32.34 35.69 37.28 35.65 34.33 31.27 30.72 28.69 34.21 32.08 31.92 30.10 28.60 29.37 28.91 25.67 21.51
54.64 55.61 55.73 55.50 55.42 55.25 55.29 55.16 55.20 55.17 54.27 49.69 46.16 37.81 47.72 46.71 36.35 33.92 31.72 35.78 40.52 37.94 39.67 38.60 37.58 36.28 33.79 33.96 32.95 31.95 32.54 34.39 38.51 36.48 31.70 31.70 30.46 22.73 28.35 32.77 34.55 32.47 31.15 29.48 22.98 23.70 22.78
54.88 55.56 54.85 54.98 54.92 54.90 55.04 54.88 54.80 54.83 53.74 44.50 41.81 42.24 48.93 43.90 30.91 29.77 34.54 36.59 37.24 36.55 35.93 36.24 35.29 36.38 35.29 32.11 29.47 32.12 33.98 38.39 38.86 36.36 32.15 32.99 28.07 19.84 24.82 28.24 30.99 28.86 31.37 32.19 29.79 26.64 22.84
55.01 54.14 53.85 54.21 54.37 54.49 54.72 54.47 54.27 54.29 54.33 46.51 42.49 35.49 40.61 41.00 37.59 33.95 32.04 32.93 33.52 37.39 36.27 36.40 34.50 34.78 32.98 31.13 32.94 30.71 32.23 37.24 38.09 37.21 40.76 37.39 28.94 26.22 22.95 25.32 29.75 24.93 28.57 30.80 28.62 20.20 21.89
53.41 52.99 52.74 52.80 53.86 54.31 54.51 54.18 53.96 53.71 53.68 48.14 40.96 36.75 38.83 33.45 36.53 35.60 34.42 34.93 33.57 32.50 35.24 35.40 33.06 33.50 31.12 27.26 28.59 28.09 31.49 32.88 35.77 38.98 35.04 33.46 25.83 24.36 27.20 29.52 28.46 29.45 29.84 29.79 25.13 27.73 24.85
52.38 52.23 52.09 52.35 52.99 54.20 54.26 53.87 53.74 53.32 53.21 44.01 39.31 39.38 40.12 37.45 38.71 37.52 36.95 33.67 35.56 35.55 35.62 34.36 33.26 34.88 32.68 29.38 29.38 27.64 30.33 29.19 29.68 33.24 31.11 32.89 25.39 27.22 26.17 31.12 29.70 27.20 29.38 29.83 31.39 32.08 30.29
51.21 51.21 51.60 51.93 52.59 53.74 53.89 53.54 53.61 53.31 51.41 42.88 42.86 42.14 40.97 39.45 36.65 35.29 34.65 35.23 36.71 37.09 37.95 38.58 36.75 35.36 34.10 35.66 36.25 35.72 35.80 35.54 33.28 33.36 31.58 31.46 28.29 27.15 25.40 30.94 30.72 27.89 32.27 31.59 29.71 30.94 32.21
50.36 50.48 50.89 51.16 52.16 53.07 53.47 53.39 53.67 53.41 51.54 45.15 42.81 41.79 38.66 35.71 36.18 37.19 38.58 38.85 37.99 37.94 36.33 38.16 38.09 35.22 37.27 40.04 39.23 36.95 35.87 36.23 35.12 32.69 34.64 30.67 29.63 28.43 24.52 27.69 20.56 31.88 34.41 34.82 33.63 34.69 34.41
49.46 49.77 50.08 50.45 50.92 52.52 53.14 53.15 53.46 53.80 53.48 46.81 45.22 42.63 39.62 35.07 36.85 37.45 38.28 38.22 38.36 37.65 37.04 38.34 38.55 38.50 39.31 36.99 34.68 33.07 32.05 32.41 33.43 32.77 31.91 33.22 30.48 26.56 25.25 23.63 28.59 32.63 31.70 31.78 31.50 30.15 33.07
48.51 48.88 49.37 49.74 50.46 51.64 52.08 52.97 53.31 53.72 53.49 48.03 45.54 45.31 42.17 37.07 35.90 40.03 38.14 37.66 34.94 33.47 35.55 37.74 39.00 40.33 38.43 36.59 34.36 27.13 27.31 30.39 28.22 28.35 33.35 33.74 31.71 27.97 26.07 23.96 23.16 29.46 32.44 33.80 33.38 25.85 33.03
48.11 47.88 48.36 48.75 49.25 49.74 50.44 50.82 51.50 52.32 53.23 48.74 46.58 46.56 43.27 38.05 39.46 39.13 36.66 36.86 38.48 35.86 34.56 36.18 36.30 36.31 37.94 33.37 30.41 28.21 28.55 32.60 27.74 26.85 25.72 27.25 27.13 24.74 24.34 22.70 27.64 32.50 33.51 34.83 25.15 26.85 34.43
47.95 47.38 47.35 47.53 48.77 49.24 49.60 49.73 50.05 50.73 51.79 48.95 46.63 47.36 44.18 39.35 40.30 42.08 42.06 38.31 38.80 37.49 33.69 36.87 36.16 35.93 33.54 30.51 30.00 29.89 28.81 30.99 28.69 29.80 28.29 27.12 24.68 24.51 25.73 23.45 22.90 34.06 32.55 29.62 31.80 33.37 34.31
48.39 47.71 46.99 47.42 48.08 48.39 48.74 49.03 49.32 49.50 50.13 51.13 45.27 47.18 46.07 41.92 40.54 44.94 44.20 43.84 42.83 42.10 39.47 38.04 35.88 35.97 36.28 31.83 31.30 30.68 29.64 29.81 28.80 25.65 31.52 28.44 31.71 29.83 30.65 29.62 34.54 34.41 33.96 36.74 36.41 35.60 35.94
MSLP
1019.93 1019.52 1019.17 1018.83 1018.49 1018.16 1017.77 1017.64 1017.50 1017.09 1016.72 1016.31 1016.07 1015.79 1015.43 1015.16 1015.01 1014.93 1014.82 1014.83 1014.77 1014.78 1014.86 1014.91 1014.83 1015.20 1015.48 1015.56 1014.82 1014.30 1014.37 1014.64 1014.83 1015.03 1015.12 1014.97 1014.79 1014.67 1014.31 1014.10 1014.16 1014.38 1014.48 1014.51 1014.66 1014.54 1014.47
1020.17 1019.76 1019.42 1019.02 1018.62 1018.33 1017.88 1017.64 1017.59 1017.09 1016.89 1016.49 1016.34 1016.15 1015.88 1015.61 1015.42 1015.35 1015.26 1015.28 1015.13 1015.20 1015.35 1015.50 1015.68 1015.84 1015.60 1015.16 1013.92 1014.06 1014.47 1014.82 1014.77 1014.91 1014.81 1014.73 1014.41 1014.24 1014.06 1013.78 1014.08 1014.15 1014.61 1014.92 1014.97 1014.93 1014.81
1020.37 1019.98 1019.63 1019.23 1018.82 1018.45 1018.03 1017.69 1017.53 1017.34 1016.97 1016.71 1016.55 1016.35 1016.24 1016.03 1015.86 1015.52 1015.49 1015.44 1015.37 1015.35 1015.42 1015.73 1015.87 1015.90 1015.72 1014.57 1013.96 1014.39 1014.27 1014.51 1014.48 1014.59 1014.64 1014.46 1014.11 1014.19 1014.03 1013.81 1013.78 1014.50 1015.20 1015.34 1015.38 1015.21 1015.18
1020.52 1020.12 1019.77 1019.38 1019.00 1018.51 1018.16 1017.85 1017.56 1017.41 1017.09 1016.81 1016.50 1016.48 1016.35 1016.31 1016.07 1015.80 1015.53 1015.69 1015.96 1015.70 1015.85 1016.06 1016.08 1016.28 1015.48 1014.13 1013.92 1014.12 1014.10 1014.33 1014.25 1014.37 1014.41 1014.00 1013.88 1014.12 1014.11 1013.73 1014.16 1014.83 1015.35 1015.85 1015.59 1015.44 1015.39
1020.66 1020.37 1019.94 1019.53 1019.05 1018.58 1018.29 1018.00 1017.66 1017.39 1017.13 1016.82 1016.50 1016.43 1016.19 1016.28 1016.17 1015.84 1015.89 1016.01 1016.08 1016.05 1016.06 1016.22 1016.19 1016.15 1014.92 1013.84 1014.09 1013.80 1013.92 1014.11 1014.12 1014.15 1014.00 1013.90 1014.03 1014.35 1014.31 1014.71 1015.22 1015.46 1015.75 1015.82 1015.86 1015.55 1015.57
1020.90 1020.61 1020.20 1019.64 1019.18 1018.67 1018.27 1018.01 1017.73 1017.44 1017.14 1016.83 1016.70 1016.38 1016.13 1016.11 1016.03 1015.97 1015.97 1016.08 1016.18 1016.29 1016.21 1015.96 1015.86 1016.10 1014.79 1014.05 1013.73 1013.67 1013.70 1014.02 1014.19 1014.28 1014.36 1014.46 1014.75 1015.16 1015.47 1015.77 1015.93 1015.83 1015.90 1015.72 1015.72 1015.78 1015.83
1021.24 1020.84 1020.31 1019.78 1019.31 1018.87 1018.34 1018.06 1017.75 1017.40 1017.14 1016.84 1016.64 1016.31 1016.14 1015.97 1015.82 1015.83 1016.03 1016.37 1016.78 1016.67 1016.10 1015.48 1014.74 1014.74 1013.91 1013.84 1013.73 1013.75 1013.58 1014.07 1014.19 1014.49 1014.92 1015.08 1015.90 1016.31 1016.33 1016.18 1015.70 1015.46 1015.57 1015.62 1015.96 1015.84 1015.99
1021.50 1021.02 1020.47 1019.97 1019.43 1018.93 1018.45 1018.04 1017.74 1017.37 1016.89 1016.71 1016.46 1016.24 1016.04 1015.85 1015.61 1015.62 1015.72 1015.82 1015.69 1015.87 1015.70 1014.81 1014.55 1014.14 1013.87 1013.91 1014.07 1013.87 1013.81 1014.24 1014.40 1014.91 1015.14 1016.00 1016.58 1016.72 1016.49 1016.11 1015.82 1015.67 1015.76 1016.22 1016.30 1016.15 1016.33
1021.51 1021.08 1020.62 1020.07 1019.61 1018.98 1018.47 1017.98 1017.66 1017.29 1016.99 1016.55 1016.35 1016.06 1015.92 1015.71 1015.43 1015.53 1015.52 1015.62 1015.59 1015.51 1015.52 1014.91 1014.31 1014.09 1013.94 1013.92 1014.11 1014.13 1014.12 1013.88 1014.36 1015.00 1015.87 1016.64 1017.14 1016.83 1016.69 1016.67 1016.41 1016.81 1016.43 1016.67 1016.47 1016.65 1016.78
1021.61 1021.22 1020.75 1020.21 1019.58 1019.05 1018.44 1017.95 1017.54 1017.21 1016.83 1016.58 1016.19 1015.92 1015.54 1015.65 1015.80 1015.29 1015.52 1015.69 1015.56 1015.66 1015.75 1015.32 1014.37 1014.01 1013.90 1013.86 1014.17 1014.12 1013.90 1013.99 1014.69 1015.81 1016.60 1017.54 1017.38 1017.27 1017.13 1017.46 1017.52 1017.38 1017.36 1017.17 1017.27 1017.73 1018.09
1021.81 1021.35 1020.89 1020.34 1019.70 1019.06 1018.61 1018.04 1017.44 1016.97 1016.67 1016.35 1016.11 1015.68 1015.43 1015.59 1015.64 1015.44 1015.84 1015.38 1015.37 1015.70 1016.12 1015.80 1014.49 1013.64 1013.72 1014.10 1014.29 1014.01 1013.77 1013.90 1015.22 1016.42 1017.03 1018.73 1018.34 1018.17 1018.11 1018.42 1018.10 1018.21 1018.04 1018.25 1018.50 1018.91 1019.27
1021.96 1021.56 1021.10 1020.52 1019.90 1019.27 1018.55 1018.02 1017.51 1016.92 1016.39 1016.13 1015.99 1015.67 1015.36 1015.35 1015.55 1015.97 1015.66 1015.51 1015.73 1016.29 1016.79 1015.89 1014.81 1014.22 1014.12 1014.16 1014.32 1014.26 1014.22 1014.44 1015.42 1016.67 1017.67 1018.80 1018.77 1019.01 1018.98 1018.80 1018.51 1018.53 1018.91 1019.45 1020.01 1020.58 1021.10
1022.20 1021.74 1021.27 1020.71 1020.13 1019.45 1018.71 1017.84 1017.38 1016.90 1016.27 1015.87 1015.67 1015.64 1015.45 1015.42 1015.74 1015.58 1015.64 1015.99 1016.47 1016.73 1016.97 1016.38 1015.47 1014.81 1014.60 1014.77 1014.76 1014.77 1015.09 1015.68 1016.29 1017.49 1019.24 1019.36 1019.59 1019.48 1019.36 1019.29 1019.12 1019.23 1020.15 1021.10 1022.05 1022.05 1022.19
1022.28 1021.83 1021.34 1020.84 1020.29 1019.73 1018.91 1018.03 1017.29 1016.74 1016.38 1015.66 1015.42 1015.52 1015.55 1015.59 1015.60 1015.63 1015.94 1016.51 1017.27 1017.85 1017.22 1016.29 1015.69 1015.19 1015.04 1015.10 1015.16 1015.21 1015.74 1016.51 1016.75 1017.22 1019.06 1019.81 1020.42 1020.08 1019.90 1019.88 1019.76 1019.83 1020.42 1021.03 1021.89 1022.41 1022.33
1022.25 1021.84 1021.38 1020.91 1020.39 1019.88 1019.21 1018.27 1017.38 1016.65 1016.11 1015.77 1015.27 1015.42 1015.80 1015.79 1015.62 1015.68 1016.38 1016.93 1017.96 1017.73 1017.10 1016.54 1015.78 1015.32 1015.31 1015.16 1015.21 1015.53 1016.45 1017.21 1017.73 1017.82 1018.32 1019.28 1020.13 1020.36 1020.24 1020.15 1020.22 1020.17 1020.39 1020.80 1021.50 1022.20 1022.25
1022.43 1021.94 1021.53 1020.91 1020.47 1019.94 1019.30 1018.49 1017.49 1016.66 1015.94 1015.76 1015.71 1015.86 1015.91 1015.65 1015.72 1016.03 1016.71 1018.26 1018.29 1017.74 1017.16 1016.51 1015.98 1015.55 1015.46 1015.47 1015.53 1015.85 1016.86 1017.75 1017.92 1017.92 1018.01 1018.64 1019.73 1020.40 1020.41 1020.40 1020.34 1020.27 1020.55 1020.95 1021.72 1022.39 1022.31
1022.52 1022.07 1021.62 1021.06 1020.52 1019.88 1019.35 1018.61 1017.75 1016.77 1016.07 1015.79 1016.09 1016.02 1015.62 1015.54 1015.88 1016.52 1017.93 1018.32 1018.13 1017.64 1017.32 1016.88 1016.22 1015.90 1015.75 1015.77 1015.89 1016.57 1017.60 1018.26 1018.24 1018.16 1018.16 1018.45 1019.04 1020.78 1020.70 1020.53 1020.27 1020.59 1020.50 1020.88 1021.40 1021.89 1022.15
1022.56 1022.17 1021.66 1021.22 1020.67 1019.97 1019.28 1018.70 1017.96 1017.21 1016.16 1015.85 1016.41 1016.56 1015.47 1015.49 1016.67 1018.07 1018.93 1018.69 1018.17 1017.67 1017.27 1016.88 1016.62 1016.51 1016.36 1016.35 1016.56 1017.12 1017.86 1018.38 1018.54 1018.60 1018.67 1018.93 1019.50 1020.75 1020.64 1020.45 1020.35 1020.33 1020.33 1020.51 1021.53 1021.99 1021.89
1022.35 1022.23 1021.82 1021.32 1020.83 1020.19 1019.45 1018.73 1018.02 1017.51 1016.93 1016.90 1017.14 1016.78 1015.87 1015.85 1017.59 1019.00 1018.95 1018.84 1018.59 1018.18 1018.00 1017.50 1017.24 1016.99 1016.69 1016.94 1017.49 1017.80 1018.44 1018.96 1018.93 1019.09 1019.24 1019.40 1019.83 1020.55 1020.84 1021.04 1020.70 1020.56 1020.36 1020.46 1021.06 1021.61 1021.61
1022.43 1022.14 1021.80 1021.54 1020.91 1020.34 1019.78 1019.00 1018.07 1017.38 1016.91 1017.12 1017.31 1017.85 1017.41 1017.29 1017.71 1018.16 1018.42 1018.48 1018.52 1018.28 1018.09 1017.88 1017.80 1017.55 1017.36 1017.50 1017.50 1018.09 1018.74 1019.16 1019.24 1019.35 1019.51 1019.63 1020.15 1020.60 1020.59 1020.22 1020.19 1020.58 1020.29 1020.54 1021.21 1021.90 1021.33
1022.61 1022.26 1021.92 1021.50 1021.12 1020.56 1019.95 1019.32 1018.43 1017.35 1016.55 1016.76 1017.74 1019.03 1018.86 1018.89 1018.70 1018.27 1017.85 1018.01 1017.99 1018.04 1017.99 1017.92 1017.90 1017.96 1018.12 1018.14 1018.19 1018.50 1018.81 1019.24 1019.47 1019.61 1019.72 1020.02 1020.60 1020.64 1020.31 1020.09 1019.95 1019.73 1019.60 1020.01 1020.48 1020.02 1020.27
1022.61 1022.36 1021.91 1021.51 1021.10 1020.83 1020.29 1019.60 1018.77 1017.66 1016.53 1017.23 1018.82 1019.25 1018.97 1018.84 1018.75 1018.53 1018.31 1018.15 1017.93 1017.97 1017.96 1017.78 1017.74 1017.80 1017.90 1018.39 1018.84 1019.04 1019.24 1019.59 1019.80 1020.21 1020.38 1020.68 1020.93 1020.97 1020.59 1019.69 1019.64 1019.47 1019.05 1019.36 1019.44 1019.34 1019.36
1022.49 1022.32 1022.04 1021.63 1021.19 1020.83 1020.56 1020.03 1019.23 1018.36 1017.32 1018.75 1019.40 1019.23 1019.37 1019.06 1018.50 1018.51 1018.64 1018.54 1018.44 1018.32 1018.39 1018.13 1018.20 1018.24 1018.34 1018.59 1018.74 1018.87 1018.91 1019.10 1019.34 1019.82 1020.41 1020.69 1020.99 1021.46 1021.03 1020.23 1019.89 1019.18 1017.44 1017.69 1017.90 1017.89 1018.28
1022.41 1022.15 1021.98 1021.78 1021.37 1020.98 1020.58 1020.35 1019.94 1019.20 1019.15 1019.53 1020.18 1020.27 1020.05 1019.69 1019.06 1018.53 1018.25 1018.19 1018.31 1018.52 1018.68 1018.58 1018.54 1018.74 1019.08 1018.89 1018.84 1018.83 1019.17 1019.36 1019.52 1019.73 1020.10 1020.78 1021.27 1021.59 1021.58 1020.74 1019.75 1017.28 1016.84 1016.84 1017.26 1017.63 1017.85
1022.38 1022.09 1021.83 1021.75 1021.47 1021.17 1020.72 1020.46 1020.32 1019.82 1019.55 1019.78 1020.08 1020.40 1020.54 1020.02 1019.19 1018.62 1018.36 1018.21 1018.29 1018.58 1018.78 1018.87 1019.06 1019.27 1019.22 1019.21 1019.45 1019.51 1019.62 1019.64 1019.61 1020.21 1020.42 1020.71 1021.41 1021.92 1021.91 1021.32 1019.02 1017.30 1017.03 1017.12 1017.31 1018.26 1018.64
1022.23 1022.08 1021.97 1021.73 1021.52 1021.30 1020.97 1020.58 1020.49 1020.15 1019.78 1019.90 1020.20 1020.08 1020.48 1020.74 1019.73 1018.92 1018.63 1018.61 1018.95 1018.98 1019.13 1018.99 1019.09 1019.08 1019.23 1019.62 1019.99 1020.23 1019.98 1019.58 1020.28 1020.76 1020.91 1021.19 1021.54 1022.18 1022.25 1021.62 1019.79 1017.75 1017.39 1017.35 1017.61 1018.92 1019.53
1021.97 1022.02 1021.97 1021.84 1021.68 1021.42 1021.16 1020.92 1020.77 1020.57 1020.12 1020.10 1020.35 1020.32 1020.52 1020.51 1019.72 1019.11 1018.86 1018.83 1018.92 1019.30 1019.47 1019.41 1019.45 1019.63 1019.71 1020.29 1020.72 1020.77 1020.18 1019.36 1019.97 1020.52 1021.19 1021.62 1022.10 1022.11 1021.99 1021.40 1019.51 1018.30 1017.96 1017.97 1019.15 1020.33 1020.47
1021.83 1021.92 1021.87 1022.11 1021.76 1021.27 1021.12 1021.13 1020.91 1020.80 1020.47 1020.19 1020.46 1020.22 1020.49 1020.63 1019.89 1019.29 1019.00 1019.08 1019.11 1019.39 1019.72 1019.89 1020.19 1020.15 1020.28 1020.75 1021.03 1020.77 1020.51 1019.99 1020.14 1020.09 1020.26 1020.66 1021.28 1021.65 1021.67 1021.34 1019.95 1018.70 1018.85 1019.51 1019.91 1020.36 1020.70
1021.36 1021.60 1021.83 1022.01 1021.97 1021.42 1021.16 1021.12 1021.02 1021.00 1020.69 1020.48 1020.56 1020.40 1020.39 1020.69 1020.14 1019.41 1019.29 1019.25 1019.36 1019.45 1019.76 1020.01 1020.09 1019.97 1020.18 1020.84 1020.93 1020.68 1020.67 1020.36 1020.39 1020.54 1019.59 1019.78 1019.31 1019.67 1020.10 1019.62 1019.42 1019.61 1019.66 1020.09 1020.29 1020.61 1021.05
Wind_Speed
17 16 15 14 12 11 11 12 12 12 13 13 13 12 16 16 14 12 14 13 14 16 12 9 12 14 5 3 4 4 6 6 4 4 4 4 3 5 4 6 4 3 3 5 3 5 4
18 18 18 16 14 12 11 12 11 10 10 11 10 9 13 12 12 11 13 12 11 9 8 11 10 2 1 4 3 8 7 5 5 4 4 4 2 4 5 5 7 6 6 6 2 2 3
19 19 19 19 16 13 11 11 11 10 9 8 9 8 9 9 11 11 9 11 10 11 12 10 5 3 2 8 4 1 8 6 4 5 2 4 1 2 3 5 5 8 6 3 2 2 2
20 20 20 20 19 15 12 11 12 10 8 7 7 7 6 5 6 7 7 14 7 8 9 5 6 3 5 5 3 5 5 4 7 6 5 2 2 1 2 2 5 4 5 4 2 3 2
21 21 21 21 20 18 15 12 11 11 9 7 5 5 4 3 2 5 5 6 5 3 2 3 3 2 0 2 1 7 7 5 3 2 2 1 2 1 4 5 5 2 4 4 2 3 2
20 21 22 22 21 19 18 15 12 11 9 9 7 4 4 3 0 2 5 5 7 2 5 5 6 1 1 3 2 2 6 7 4 4 3 0 4 4 5 5 6 7 4 3 6 5 2
20 20 21 22 22 20 19 17 15 12 10 9 8 7 4 3 3 2 6 4 3 2 4 5 5 4 3 3 5 3 2 4 4 2 4 2 7 2 5 4 4 3 4 6 1 2 3
19 20 21 21 21 22 20 20 17 14 12 10 8 8 7 3 6 4 3 3 2 1 2 8 2 0 2 2 2 1 6 6 5 4 5 6 3 2 5 5 3 5 6 1 2 3 2
18 19 21 21 21 21 20 19 18 15 14 13 10 9 9 8 2 1 3 4 1 2 2 2 2 3 3 3 2 2 2 4 5 5 4 7 2 4 2 6 5 4 7 3 4 3 0
17 18 19 21 22 22 21 19 19 16 13 12 12 8 7 8 1 2 2 2 0 2 6 9 5 3 1 1 4 2 2 1 6 7 6 6 3 3 3 5 4 2 5 2 5 5 3
18 18 19 20 21 23 22 22 20 18 14 10 10 11 4 3 3 1 2 1 2 3 7 8 4 2 3 4 3 7 4 7 6 4 6 2 5 7 7 3 2 2 2 3 2 4 5
18 19 20 20 20 21 22 23 22 19 15 9 7 10 8 2 2 2 3 4 3 8 2 4 2 2 2 3 2 1 4 7 4 7 8 4 1 4 1 1 3 3 4 6 5 4 4
17 18 20 20 20 20 21 21 22 21 16 10 5 8 6 1 2 2 3 3 7 8 4 3 2 3 4 4 3 2 3 4 3 7 4 5 3 2 3 1 3 4 6 4 6 5 7
16 18 19 19 20 21 21 22 22 21 17 8 6 5 4 1 1 2 3 6 10 2 2 3 3 1 4 3 2 1 3 3 7 5 5 6 5 3 5 2 2 1 5 7 6 3 5
15 16 17 18 19 21 23 23 22 20 18 10 3 1 2 3 2 2 5 7 5 4 3 3 1 2 2 0 2 3 4 3 3 5 6 4 1 1 2 2 2 1 1 3 6 4 4
15 16 16 18 20 21 22 24 24 22 17 9 2 2 2 2 2 4 7 4 1 3 4 2 3 1 2 3 2 2 2 3 0 1 0 1 5 0 1 1 1 0 2 4 4 3 4
14 16 17 19 20 20 20 22 23 23 19 5 3 4 4 1 3 7 5 3 3 1 1 2 5 2 3 2 2 3 1 2 4 3 2 1 4 2 2 4 6 1 0 2 3 5 5
13 14 17 18 18 19 20 22 23 23 19 6 2 5 2 3 7 3 3 3 3 3 4 1 2 5 3 5 4 3 4 2 4 3 1 2 5 3 4 0 1 1 3 5 6 4 2
11 15 17 17 17 19 21 22 23 22 14 1 3 2 3 5 5 3 1 3 3 5 4 6 3 2 1 3 4 2 4 2 5 3 2 1 0 3 7 5 3 3 4 2 4 3 6
10 13 17 17 17 18 19 22 24 24 18 1 4 4 6 6 1 7 3 2 2 3 2 2 3 3 2 3 5 3 2 1 2 2 0 1 1 4 7 4 4 3 4 5 5 3 4
11 12 14 17 18 17 18 20 23 26 25 3 4 2 5 3 5 4 4 1 4 1 1 1 4 4 4 3 3 2 2 1 1 1 1 4 3 1 4 5 3 7 6 8 9 8 8
9 12 13 15 17 17 16 17 21 26 22 6 3 2 3 2 2 4 3 1 1 2 1 2 4 3 2 3 2 0 1 2 3 1 1 3 3 2 5 3 7 7 8 9 12 11 11
8 11 13 14 15 14 15 15 17 22 13 4 3 2 4 4 1 3 1 2 2 1 3 1 1 2 1 3 1 2 3 3 4 6 5 4 3 2 5 2 3 8 10 11 7 6 9
7 9 11 13 13 14 12 13 14 16 12 3 0 2 3 3 1 3 3 2 3 1 1 1 2 1 0 4 4 1 4 5 4 3 3 3 3 3 4 3 3 6 0 2 8 3 7
6 8 10 11 12 12 11 10 11 12 14 4 2 3 2 2 2 1 3 3 5 3 2 1 1 2 2 2 3 3 3 2 2 4 3 3 3 1 2 4 7 4 1 2 5 1 4
4 6 8 9 9 10 11 11 10 10 11 3 1 2 3 2 3 4 2 2 2 2 1 3 1 1 2 2 2 2 5 4 2 0 4 3 4 3 0 3 6 2 1 1 1 3 4
1 3 4 7 8 10 10 10 11 11 9 2 1 2 2 2 3 2 2 4 1 1 1 2 2 1 3 2 2 4 4 2 4 6 5 3 1 6 4 4 8 2 1 2 2 4 3
3 1 2 4 6 8 9 10 11 11 11 3 2 2 3 0 4 2 0 1 1 2 3 3 3 3 2 3 4 3 3 2 2 4 6 7 7 5 3 4 9 0 1 4 3 3 4
7 5 3 3 5 6 7 9 9 10 12 6 0 2 1 2 5 2 2 1 1 2 3 1 3 3 4 2 1 1 1 1 3 3 0 2 6 4 8 5 1 3 1 3 4 4 1
Wind_Direction
16 16 13 12 7 3 358 356 2 7 10 19 25 31 46 50 66 63 77 78 78 66 78 91 125 128 145 118 260 153 133 174 165 151 227 232 194 184 223 185 153 175 141 70 102 60 67
19 16 11 12 12 8 1 356 3 2 16 12 36 24 25 49 76 72 82 80 76 77 81 100 110 95 133 157 249 159 180 173 215 182 226 216 190 254 289 188 155 168 103 125 126 88 54
19 19 14 12 11 12 6 0 355 1 6 12 4 16 18 38 75 94 102 95 85 74 113 103 42 356 19 196 333 287 179 195 208 196 244 224 287 29 343 136 146 134 94 78 179 171 124
19 16 14 14 13 11 7 9 357 1 0 5 1 356 3 51 91 135 134 100 48 78 121 111 15 24 246 234 270 278 189 238 223 209 242 229 67 263 270 235 59 101 81 118 244 156 213
18 15 15 15 16 11 8 12 5 358 354 346 351 351 329 8 120 171 203 153 142 133 223 300 347 42 4 113 255 225 185 170 152 206 293 312 34 138 17 87 49 1 178 166 212 199 157
18 15 13 15 17 12 10 7 5 357 348 340 349 353 318 325 210 241 211 187 192 214 280 265 252 252 227 167 153 309 202 163 161 129 69 69 46 58 22 69 183 190 207 174 173 220 190
16 14 12 13 16 14 8 8 2 358 344 341 339 329 325 299 269 204 117 92 54 289 251 208 296 218 70 51 44 265 14 145 112 134 117 205 74 159 242 230 266 209 230 127 144 203 157
15 11 8 9 7 12 11 6 3 358 344 335 331 322 316 287 266 160 169 209 156 179 300 244 246 191 58 83 123 57 22 159 136 156 124 39 111 273 284 255 279 352 166 78 81 171 134
12 11 7 5 4 6 9 8 6 359 351 333 331 331 323 312 234 91 164 132 348 20 131 14 132 97 281 12 68 298 356 176 143 88 91 127 216 307 321 32 48 22 101 157 143 160 32
12 10 8 4 1 358 358 6 7 4 357 342 326 338 343 340 214 211 129 108 1 104 74 338 348 5 323 64 29 261 309 118 44 107 93 78 313 338 43 73 3 77 331 50 65 83 194
15 13 10 8 3 355 353 357 6 3 354 350 332 327 347 41 280 276 108 283 238 76 62 296 334 305 314 76 162 343 308 35 84 71 89 277 23 20 57 342 316 155 56 74 55 91 66
14 11 8 6 3 359 353 352 356 1 353 347 342 321 330 35 46 359 340 334 61 44 321 354 307 330 78 28 43 299 33 40 151 72 43 104 85 59 77 356 33 149 70 32 40 72 42
8 9 4 1 357 356 353 353 353 359 356 343 343 344 344 3 220 318 17 42 42 84 289 357 325 13 87 21 52 45 62 34 110 83 21 35 17 8 24 27 340 65 62 359 359 10 214
6 1 1 359 355 352 351 351 355 357 353 339 324 10 346 49 355 60 63 56 69 259 36 252 287 38 77 9 25 31 130 70 25 66 109 136 330 3 341 71 170 103 144 153 198 192 257
1 358 356 355 357 355 351 349 350 357 355 328 328 40 90 309 331 75 79 51 165 186 265 357 267 61 64 75 122 88 66 77 30 14 119 131 327 210 50 341 79 221 42 173 108 7 58
354 354 355 357 355 354 352 349 349 352 1 342 82 38 313 282 33 61 74 114 80 315 329 296 80 74 89 18 90 107 81 321 91 30 90 158 95 236 245 359 327 199 200 58 356 160 254
351 353 354 354 349 350 351 349 349 350 352 48 25 63 261 126 71 47 98 121 117 270 320 7 358 42 96 134 73 75 63 330 22 322 348 67 106 278 62 204 186 106 266 69 111 143 170
347 350 350 349 345 346 348 349 349 352 347 65 11 47 280 73 49 37 44 354 339 344 4 308 69 32 34 25 43 89 129 62 339 334 88 34 121 159 226 111 39 259 230 156 126 222 217
346 347 347 345 346 345 346 346 348 353 6 64 51 300 358 72 86 27 306 38 51 18 13 1 27 10 48 98 108 79 86 358 15 40 143 291 190 52 342 352 355 231 226 171 112 76 215
357 355 352 350 348 347 347 345 345 347 352 126 80 20 332 31 122 126 128 90 28 350 21 4 348 321 350 44 20 131 108 111 12 87 276 79 82 161 191 201 134 211 226 190 130 130 193
358 1 2 356 352 348 347 348 345 346 347 100 29 196 181 344 345 10 110 171 149 100 95 344 23 47 10 11 17 70 122 142 353 145 191 115 197 88 266 249 233 218 208 190 191 202 179
1 358 358 355 352 349 348 350 351 351 346 75 87 69 355 177 296 344 11 333 119 179 114 196 140 180 151 126 121 56 141 203 233 8 1 13 308 36 297 256 204 249 238 218 228 242 250
1 356 349 350 352 353 348 350 358 360 9 64 331 1 94 274 65 97 281 359 342 5 327 45 53 43 196 171 189 205 190 199 175 159 187 155 139 90 271 318 352 290 243 206 196 198 201
354 354 349 346 347 351 349 349 356 7 26 114 213 82 66 289 76 176 164 132 155 87 5 187 9 9 245 339 320 322 324 295 285 252 150 158 138 128 264 19 222 249 20 296 196 253 213
347 351 357 349 349 345 345 352 359 4 11 77 14 77 73 252 232 194 158 175 149 158 195 144 84 183 303 337 27 350 348 331 244 31 131 117 131 222 208 220 286 254 205 190 176 150 5
334 354 356 357 356 7 8 16 10 9 10 61 48 146 102 98 273 307 177 196 214 214 308 167 179 171 115 110 99 204 229 221 219 315 21 72 96 137 262 221 247 279 224 67 114 254 34
294 358 347 6 12 16 17 17 12 4 8 64 296 60 84 143 269 21 186 185 194 124 217 144 184 112 47 104 163 200 252 181 192 188 174 131 176 204 232 267 284 326 180 330 134 232 90
214 286 344 345 2 22 25 25 19 4 1 57 287 40 111 192 285 316 84 160 7 104 155 235 36 329 80 157 167 243 200 265 338 159 179 170 153 206 176 220 271 348 50 199 156 93 128
205 194 225 303 345 18 24 20 17 14 3 6 333 333 100 147 236 259 313 346 314 188 152 251 192 174 202 113 238 131 235 222 174 258 309 234 193 187 194 224 80 355 74 85 106 117 124